Regional Weather Roundup
Issued by NWS

Home | Current Version | Previous Version | Graphics & Text | Print | Product List | Glossary On
Versions: 1 2 3 4 5 6 7 8 9 10 11 12 13 14 15 16 17 18 19 20 21 22 23 24 25 26 27 28 29 30 31 32 33 34 35 36 37 38 39 40 41 42 43 44 45 46 47 48 49 50
000
ASUS43 KDMX 280107
RWRIA

WEATHER ROUNDUP FOR IOWA
NATIONAL WEATHER SERVICE DES MOINES IA
700 PM CST THU NOV 27 2014

NOTE: "FAIR" INDICATES FEW OR NO CLOUDS BELOW 12,000 FEET WITH NO
SIGNIFICANT WEATHER AND/OR OBSTRUCTIONS TO VISIBILITY.

* - THESE STATIONS ARE NOT NWS STATIONS...THUS NOT UNDER NWS
QUALITY CONTROL.  THEY ALSO DO NOT REPORT WEATHER SUCH
AS PRECIPITATION OR FOG.

IAZ001>003-012>014-020>022-031>034-043>046-280200-
   NORTHWEST IOWA

CITY           SKY/WX    TMP DP  RH WIND       PRES   REMARKS
CARROLL *      MOCLDY    12   5  73 SE15      30.32F WCI  -4
CHEROKEE *     CLOUDY    12   3  67 S12       30.28F WCI  -2
DENISON *      PTCLDY    16   7  67 SE9G17    30.27F WCI   4
LE MARS *      CLOUDY    16   9  73 SE13G21   30.24F WCI   2
ORANGE CITY *  MOCLDY    14   7  73 S8G17     30.23F WCI   3
SHELDON *      CLOUDY    10   3  72 SE15      30.22F WCI  -6
SIOUX CITY     PTCLDY    20   9  62 SE14      30.26F WCI   7
SPENCER        CLOUDY     8  -1  66 SE14      30.27F WCI  -8
STORM LAKE *   CLOUDY     9   3  78 SE15      30.26F WCI  -8
$$

IAZ055>058-069>071-079>083-090>094-280200-
   SOUTHWEST IOWA

CITY           SKY/WX    TMP DP  RH WIND       PRES   REMARKS
ATLANTIC *     PTCLDY    18   9  68 SE9       30.32F WCI   6
AUDUBON *      CLEAR     16   5  62 SE6       30.31F WCI   7
CLARINDA *     CLEAR     23  16  74 SE7       30.34F WCI  15
COUNCIL BLFS * CLEAR     21  14  73 SE13      30.27F WCI   9
CRESTON *      PTCLDY    16   9  73 SE12      30.34F WCI   3
HARLAN  *      CLEAR     18   9  68 SE10      30.34F WCI   6
LAMONI         CLOUDY    20  11  68 SE6       30.36F WCI  12
RED OAK *      CLOUDY    23  14  68 SE8       30.32F WCI  14
SHENANDOAH *   CLEAR     25  16  68 SE14      30.32F WCI  13
$$

IAZ047>049-059>061-072>074-084-280200-
   CENTRAL IOWA

CITY           SKY/WX    TMP DP  RH WIND       PRES   REMARKS
AMES           CLOUDY     8   0  69 SE8       30.38F WCI  -4
ANKENY *       CLOUDY    10   0  61 SE5       30.39F WCI   2
CHARITON *     CLOUDY    16   5  62 SE9       30.37F WCI   4
DES MOINES     CLOUDY    13   2  61 SE7       30.38F WCI   3
GRINNELL*      PTCLDY     5   1  85 CALM      30.39F
KNOXVILLE *    CLOUDY    12   0  57 SE7       30.37F WCI   2
MARSHALLTOWN   PTCLDY     6   0  76 E5        30.38F WCI  -3
PELLA *        CLOUDY    10   3  72 SE5       30.41F WCI   2
PERRY *        CLOUDY    12   5  73 SE8       30.36F WCI   1
$$

IAZ004>006-015-016-023>025-035-036-280200-
   NORTH CENTRAL IOWA

CITY           SKY/WX    TMP DP  RH WIND       PRES   REMARKS
ALGONA *       CLOUDY     3  -2  78 SE9       30.33F WCI -11
CLARION *      CLOUDY     5  -2  72 SE10      30.35F WCI -10
ESTHERVILLE    CLOUDY     3  -3  76 SE13      30.30  WCI -14
FORT DODGE *   CLOUDY     7   0  72 SE5       30.35S WCI  -2
MASON CITY     PTCLDY     4  -1  80 S7        30.37S WCI  -8
FOREST CITY *  MOCLDY     5   1  85 SE7       30.34F WCI  -7
IOWA FALLS *   CLOUDY     7   1  78 E7        30.36F WCI  -5
$$

IAZ007>011-017>019-026>030-037>042-050>054-066-280200-
   NORTHEAST IOWA

CITY           SKY/WX    TMP DP  RH WIND       PRES   REMARKS
CEDAR RAPIDS   PTCLDY     5   2  87 CALM      30.40F
CHARLES CITY * CLOUDY     5  -2  72 CALM      30.38F
CLINTON *      PTCLDY     7   0  72 W8        30.44F WCI  -6
DECORAH *      MOCLDY     5  -2  72 CALM      30.37S
DUBUQUE        PTCLDY     8  -2  63 CALM      30.38F
MONTICELLO *   CLEAR      9   1  72 W6        30.41F WCI  -1
OELWEIN *      CLOUDY     7   0  72 W5        30.40S WCI  -2
WATERLOO       MOCLDY     6   0  76 N3        30.41S
$$

IAZ064-065-067-068-078-280200-
   EAST CENTRAL IOWA

CITY           SKY/WX    TMP DP  RH WIND       PRES   REMARKS
DAVENPORT      PTCLDY     8   1  73 W7        30.43F WCI  -3
IOWA CITY      PTCLDY     7   2  80 W5        30.45F WCI  -2
MT. PLEASANT * PTCLDY     7   1  78 CALM      30.43F
MUSCATINE *    CLEAR      9   3  78 CALM      30.45F
QUAD CITIES    PTCLDY    12   4  70 SW5       30.44F WCI   4
$$

IAZ062-063-075>077-085>089-095>099-280200-
   SOUTHEAST IOWA

CITY           SKY/WX    TMP DP  RH WIND       PRES   REMARKS
BURLINGTON     CLEAR      7   1  76 CALM      30.44F
FAIRFIELD *    CLEAR      5   0  78 CALM      30.42F
FORT MADISON * CLEAR     12   1  62 CALM      30.44F
KEOKUK *       CLEAR     14   5  67 NE3       30.43F
OSKALOOSA *    MOCLDY     5   1  85 S3        30.41F
CENTERVILLE *  PTCLDY    18   9  68 E6        30.40F WCI   9
OTTUMWA        CLOUDY     9  -1  64 E6        30.41F WCI  -1
WASHINGTON *   CLEAR      3   1  92 CALM      30.43F
$$

ABBREVIATIONS USED IN REMARKS
   TC - TEMPERATURES IN CELSIUS
  WCI - WIND CHILL INDEX
   HX - HEAT INDEX
  VSB - VISIBILITY
$$




USA.gov is the U.S. government's official web portal to all federal, state and local government web resources and services.